,,Stat5,,Stat1,,Stat2,,Stat3,,Stat4,,Wind1,,Wind1,
time,status,PA1M_AVG,status,PR1M_SUM,status,RH1M_AVG,status,SR1M_AVG,status,TA1M_AVG,status,W1dAve1m,status,W1sAve1m,
2001-07-22, 00:00:00,VALID,916.963,VALID,0,VALID,99.0593,VALID,-0.101885,VALID,18.7564,VALID,144,VALID,1.05962,
2001-07-22, 00:01:00,VALID,916.963,VALID,0,VALID,99.0631,VALID,-0.0849042,VALID,18.7633,VALID,144,VALID,1.0884,
2001-07-22, 00:02:00,VALID,916.956,VALID,0,VALID,99.0809,VALID,-0.0679233,VALID,18.7663,VALID,147,VALID,1.10877,
2001-07-22, 00:03:00,VALID,916.965,VALID,0,VALID,99.086,VALID,-0.0339617,VALID,18.7661,VALID,133,VALID,0.928711,
2001-07-22, 00:04:00,VALID,916.97,VALID,0,VALID,99.0885,VALID,-0.0849042,VALID,18.7626,VALID,136,VALID,0.755609,
2001-07-22, 00:05:00,VALID,916.967,VALID,0,VALID,99.086,VALID,-0.0679233,VALID,18.7728,VALID,141,VALID,0.95653,
2001-07-22, 00:06:00,VALID,916.97,VALID,0,VALID,99.0961,VALID,-0.101885,VALID,18.7628,VALID,139,VALID,0.874789,
2001-07-22, 00:07:00,VALID,916.966,VALID,0,VALID,99.1139,VALID,-0.0339617,VALID,18.7732,VALID,137,VALID,0.806445,
2001-07-22, 00:08:00,VALID,916.955,VALID,0,VALID,99.1165,VALID,-0.101885,VALID,18.7762,VALID,123,VALID,0.588006,
2001-07-22, 00:09:00,VALID,916.946,VALID,0,VALID,99.1394,VALID,-0.0849042,VALID,18.7765,VALID,121,VALID,0.939844,
2001-07-22, 00:10:00,VALID,916.94,VALID,0,VALID,99.1521,VALID,-0.101885,VALID,18.7991,VALID,118,VALID,0.625601,
2001-07-22, 00:11:00,VALID,916.937,VALID,0,VALID,99.1356,VALID,-0.101885,VALID,18.7919,VALID,109,VALID,0.608553,
2001-07-22, 00:12:00,VALID,916.942,VALID,0,VALID,99.1305,VALID,-0.0679233,VALID,18.7817,VALID,104,VALID,0.629523,
2001-07-22, 00:13:00,VALID,916.938,VALID,0,VALID,99.1406,VALID,0,VALID,18.7746,VALID,103,VALID,0.5,
2001-07-22, 00:14:00,VALID,916.937,VALID,0,VALID,99.1572,VALID,0,VALID,18.781,VALID,103,VALID,0.420898,
2001-07-22, 00:15:00,VALID,916.921,VALID,0,VALID,99.1699,VALID,0.0169808,VALID,18.7974,VALID,103,VALID,0.34375,
2001-07-22, 00:16:00,VALID,916.913,VALID,0,VALID,99.1661,VALID,0,VALID,18.7965,VALID,99,VALID,0.03125,
2001-07-22, 00:17:00,VALID,916.912,VALID,0,VALID,99.1597,VALID,0,VALID,18.787,VALID,106,VALID,0,
2001-07-22, 00:18:00,VALID,916.907,VALID,0,VALID,99.1521,VALID,0,VALID,18.7942,VALID,110,VALID,0,
2001-07-22, 00:19:00,VALID,916.902,VALID,0,VALID,99.161,VALID,0.0169808,VALID,18.7808,VALID,111,VALID,0,
2001-07-22, 00:20:00,VALID,916.895,VALID,0,VALID,99.1864,VALID,0,VALID,18.7905,VALID,111,VALID,0,
2001-07-22, 00:21:00,VALID,916.887,VALID,0,VALID,99.1813,VALID,0.0169808,VALID,18.8098,VALID,111,VALID,0,
2001-07-22, 00:22:00,VALID,916.876,VALID,0,VALID,99.1483,VALID,0.0169808,VALID,18.7942,VALID,86,VALID,0,
2001-07-22, 00:23:00,VALID,916.874,VALID,0,VALID,99.1496,VALID,0,VALID,18.7716,VALID,83,VALID,0,
2001-07-22, 00:24:00,VALID,916.882,VALID,0,VALID,99.1546,VALID,0.0169808,VALID,18.7681,VALID,83,VALID,0,
2001-07-22, 00:25:00,VALID,916.881,VALID,0,VALID,99.1432,VALID,0.0339617,VALID,18.7487,VALID,84,VALID,0,
2001-07-22, 00:26:00,VALID,916.906,VALID,0,VALID,99.1254,VALID,0,VALID,18.6961,VALID,202,VALID,0,
2001-07-22, 00:27:00,VALID,916.914,VALID,0,VALID,99.1305,VALID,0.0509425,VALID,18.7065,VALID,262,VALID,0,
2001-07-22, 00:28:00,VALID,916.941,VALID,0,VALID,99.161,VALID,0.0169808,VALID,18.7187,VALID,277,VALID,0,
2001-07-22, 00:29:00,VALID,916.966,VALID,0,VALID,99.1508,VALID,0.0169808,VALID,18.7008,VALID,323,VALID,0,
2001-07-22, 00:30:00,VALID,916.979,VALID,0,VALID,99.1559,VALID,0,VALID,18.6938,VALID,11,VALID,0,
2001-07-22, 00:31:00,VALID,916.988,VALID,0,VALID,99.1267,VALID,0,VALID,18.6583,VALID,24,VALID,0,
2001-07-22, 00:32:00,VALID,916.99,VALID,0,VALID,99.1012,VALID,0.0339617,VALID,18.62,VALID,29,VALID,0,
2001-07-22, 00:33:00,VALID,916.991,VALID,0,VALID,99.0949,VALID,-0.0169808,VALID,18.5903,VALID,32,VALID,0,
2001-07-22, 00:34:00,VALID,916.997,VALID,0,VALID,99.1025,VALID,0.0509425,VALID,18.561,VALID,32,VALID,0,
2001-07-22, 00:35:00,VALID,916.991,VALID,0,VALID,99.0987,VALID,0.0679233,VALID,18.5647,VALID,32,VALID,0,
2001-07-22, 00:36:00,VALID,916.995,VALID,0,VALID,99.1305,VALID,0.0509425,VALID,18.5649,VALID,32,VALID,0,
2001-07-22, 00:37:00,VALID,917.002,VALID,0,VALID,99.1457,VALID,0.0169808,VALID,18.5441,VALID,32,VALID,0,
2001-07-22, 00:38:00,VALID,916.991,VALID,0,VALID,99.1686,VALID,0.0679233,VALID,18.5704,VALID,32,VALID,0,
2001-07-22, 00:39:00,VALID,916.997,VALID,0,VALID,99.1928,VALID,0.0169808,VALID,18.6124,VALID,33,VALID,0,
2001-07-22, 00:40:00,VALID,917.002,VALID,0,VALID,99.2119,VALID,0.0339617,VALID,18.6512,VALID,56,VALID,0,
2001-07-22, 00:41:00,VALID,917.007,VALID,0,VALID,99.1991,VALID,0.0169808,VALID,18.6876,VALID,57,VALID,0,
2001-07-22, 00:42:00,VALID,917.011,VALID,0,VALID,99.189,VALID,0.0169808,VALID,18.6678,VALID,57,VALID,0,
2001-07-22, 00:43:00,VALID,917.022,VALID,0,VALID,99.1877,VALID,0,VALID,18.6869,VALID,57,VALID,0,
2001-07-22, 00:44:00,VALID,917.037,VALID,0,VALID,99.175,VALID,0.0339617,VALID,18.6934,VALID,57,VALID,0,
2001-07-22, 00:45:00,VALID,917.03,VALID,0,VALID,99.1572,VALID,0.0169808,VALID,18.7003,VALID,68,VALID,0,
2001-07-22, 00:46:00,VALID,917.019,VALID,0,VALID,99.1089,VALID,0.0169808,VALID,18.6745,VALID,86,VALID,0,
2001-07-22, 00:47:00,VALID,917.011,VALID,0,VALID,99.0885,VALID,0.0169808,VALID,18.6394,VALID,98,VALID,0,
2001-07-22, 00:48:00,VALID,917,VALID,0,VALID,99.1114,VALID,0,VALID,18.6389,VALID,98,VALID,0,
2001-07-22, 00:49:00,VALID,916.98,VALID,0,VALID,99.1216,VALID,0,VALID,18.6392,VALID,98,VALID,0,
2001-07-22, 00:50:00,VALID,916.96,VALID,0,VALID,99.1139,VALID,0.0509425,VALID,18.6359,VALID,94,VALID,0,
2001-07-22, 00:51:00,VALID,916.938,VALID,0,VALID,99.086,VALID,0.0169808,VALID,18.6096,VALID,85,VALID,0,
2001-07-22, 00:52:00,VALID,916.922,VALID,0,VALID,99.0402,VALID,0.0169808,VALID,18.5674,VALID,79,VALID,0.520312,
2001-07-22, 00:53:00,VALID,916.907,VALID,0,VALID,98.9982,VALID,0,VALID,18.522,VALID,61,VALID,0.765024,
2001-07-22, 00:54:00,VALID,916.896,VALID,0,VALID,98.9944,VALID,0.0169808,VALID,18.4936,VALID,60,VALID,0.78125,
2001-07-22, 00:55:00,VALID,916.886,VALID,0,VALID,99.0313,VALID,0,VALID,18.4969,VALID,82,VALID,0.638775,
2001-07-22, 00:56:00,VALID,916.878,VALID,0,VALID,99.0453,VALID,0,VALID,18.51,VALID,99,VALID,0.755757,
2001-07-22, 00:57:00,VALID,916.855,VALID,0,VALID,99.1063,VALID,0,VALID,18.5192,VALID,101,VALID,0.791807,
2001-07-22, 00:58:00,VALID,916.826,VALID,0,VALID,99.1483,VALID,-0.0849042,VALID,18.5656,VALID,100,VALID,0.562305,
2001-07-22, 00:59:00,VALID,916.803,VALID,0,VALID,99.1368,VALID,-0.0849042,VALID,18.5822,VALID,103,VALID,0.427734,
2001-07-22, 01:00:00,VALID,916.769,VALID,0,VALID,99.1152,VALID,-0.101885,VALID,18.579,VALID,93,VALID,0.315034,
2001-07-22, 01:01:00,VALID,916.738,VALID,0,VALID,99.1165,VALID,-0.101885,VALID,18.5688,VALID,86,VALID,0.52097,
2001-07-22, 01:02:00,VALID,916.704,VALID,0,VALID,99.1635,VALID,-0.101885,VALID,18.6046,VALID,99,VALID,0.847775,
2001-07-22, 01:03:00,VALID,916.684,VALID,0,VALID,99.1597,VALID,-0.101885,VALID,18.6307,VALID,113,VALID,0.841283,
2001-07-22, 01:04:00,VALID,916.661,VALID,0,VALID,99.1763,VALID,-0.0849042,VALID,18.657,VALID,114,VALID,0.85332,
2001-07-22, 01:05:00,VALID,916.637,VALID,0,VALID,99.1763,VALID,-0.101885,VALID,18.6759,VALID,108,VALID,0.895765,
2001-07-22, 01:06:00,VALID,916.626,VALID,0,VALID,99.1496,VALID,-0.101885,VALID,18.6989,VALID,98,VALID,0.758429,
2001-07-22, 01:07:00,VALID,916.6,VALID,0,VALID,99.1165,VALID,-0.101885,VALID,18.7082,VALID,99,VALID,0.632813,
2001-07-22, 01:08:00,VALID,916.583,VALID,0,VALID,99.0783,VALID,-0.101885,VALID,18.7114,VALID,93,VALID,0.539463,
2001-07-22, 01:09:00,VALID,916.563,VALID,0,VALID,98.9448,VALID,-0.118866,VALID,18.6696,VALID,88,VALID,0.0664063,
2001-07-22, 01:10:00,VALID,916.55,VALID,0,VALID,98.9308,VALID,-0.0849042,VALID,18.6408,VALID,89,VALID,0,
2001-07-22, 01:11:00,VALID,916.53,VALID,0,VALID,98.9753,VALID,-0.0849042,VALID,18.6694,VALID,91,VALID,0,
2001-07-22, 01:12:00,VALID,916.515,VALID,0,VALID,98.9715,VALID,-0.0849042,VALID,18.692,VALID,96,VALID,0,
2001-07-22, 01:13:00,VALID,916.504,VALID,0,VALID,98.9614,VALID,-0.0169808,VALID,18.7105,VALID,106,VALID,0,
2001-07-22, 01:14:00,VALID,916.496,VALID,0,VALID,98.9219,VALID,0.0169808,VALID,18.7164,VALID,118,VALID,0,
2001-07-22, 01:15:00,VALID,916.476,VALID,0,VALID,98.8851,VALID,0,VALID,18.7199,VALID,121,VALID,0.0206163,
2001-07-22, 01:16:00,VALID,916.462,VALID,0,VALID,98.8482,VALID,0,VALID,18.7199,VALID,120,VALID,0.641276,
2001-07-22, 01:17:00,VALID,916.422,VALID,0,VALID,98.7999,VALID,0,VALID,18.6971,VALID,105,VALID,0.449777,
2001-07-22, 01:18:00,VALID,916.422,VALID,0,VALID,98.7668,VALID,0,VALID,18.6941,VALID,105,VALID,0.315625,
2001-07-22, 01:19:00,VALID,916.426,VALID,0,VALID,98.7566,VALID,0,VALID,18.6973,VALID,115,VALID,0.365385,
2001-07-22, 01:20:00,VALID,916.418,VALID,0,VALID,98.7032,VALID,0,VALID,18.6876,VALID,110,VALID,0.165582,
2001-07-22, 01:21:00,VALID,916.424,VALID,0,VALID,98.7248,VALID,0,VALID,18.671,VALID,135,VALID,0.545819,
2001-07-22, 01:22:00,VALID,916.428,VALID,0,VALID,98.7528,VALID,-0.0169808,VALID,18.6775,VALID,134,VALID,0.531661,
2001-07-22, 01:23:00,VALID,916.427,VALID,0,VALID,98.7897,VALID,0.0169808,VALID,18.6938,VALID,132,VALID,0.60588,
2001-07-22, 01:24:00,VALID,916.425,VALID,0,VALID,98.791,VALID,0,VALID,18.707,VALID,136,VALID,0.100419,
2001-07-22, 01:25:00,VALID,916.413,VALID,0,VALID,98.7821,VALID,0,VALID,18.71,VALID,137,VALID,0,
2001-07-22, 01:26:00,VALID,916.392,VALID,0,VALID,98.7884,VALID,-0.0169808,VALID,18.7033,VALID,140,VALID,0,
2001-07-22, 01:27:00,VALID,916.388,VALID,0,VALID,98.7821,VALID,0,VALID,18.7003,VALID,148,VALID,0,
2001-07-22, 01:28:00,VALID,916.4,VALID,0,VALID,98.7643,VALID,0,VALID,18.7038,VALID,148,VALID,0,
2001-07-22, 01:29:00,VALID,916.402,VALID,0,VALID,98.7554,VALID,0.0169808,VALID,18.6871,VALID,148,VALID,0,
2001-07-22, 01:30:00,VALID,916.403,VALID,0,VALID,98.7681,VALID,0,VALID,18.6839,VALID,211,VALID,0,
2001-07-22, 01:31:00,VALID,916.42,VALID,0,VALID,98.7655,VALID,0,VALID,18.6908,VALID,245,VALID,0,
2001-07-22, 01:32:00,VALID,916.419,VALID,0,VALID,98.796,VALID,0.0339617,VALID,18.6839,VALID,253,VALID,0,
2001-07-22, 01:33:00,VALID,916.41,VALID,0,VALID,98.8316,VALID,0,VALID,18.7035,VALID,264,VALID,0,
2001-07-22, 01:34:00,VALID,916.41,VALID,0,VALID,98.8482,VALID,0,VALID,18.7331,VALID,275,VALID,0,
2001-07-22, 01:35:00,VALID,916.396,VALID,0,VALID,98.8647,VALID,0,VALID,18.7423,VALID,288,VALID,0,
2001-07-22, 01:36:00,VALID,916.374,VALID,0,VALID,98.894,VALID,0.0339617,VALID,18.7619,VALID,303,VALID,0,
2001-07-22, 01:37:00,VALID,916.372,VALID,0,VALID,98.8812,VALID,0,VALID,18.7718,VALID,325,VALID,0,
2001-07-22, 01:38:00,VALID,916.344,VALID,0,VALID,98.8711,VALID,-0.0169808,VALID,18.7653,VALID,325,VALID,0,
2001-07-22, 01:39:00,VALID,916.33,VALID,0,VALID,98.8329,VALID,0,VALID,18.7557,VALID,325,VALID,0,
2001-07-22, 01:40:00,VALID,916.322,VALID,0,VALID,98.7706,VALID,0,VALID,18.7199,VALID,325,VALID,0,
2001-07-22, 01:41:00,VALID,916.31,VALID,0,VALID,98.7897,VALID,0,VALID,18.7072,VALID,325,VALID,0,
2001-07-22, 01:42:00,VALID,916.302,VALID,0,VALID,98.8151,VALID,0,VALID,18.7201,VALID,325,VALID,0,
2001-07-22, 01:43:00,VALID,916.3,VALID,0,VALID,98.8482,VALID,-0.0679233,VALID,18.7407,VALID,325,VALID,0,
2001-07-22, 01:44:00,VALID,916.292,VALID,0,VALID,98.8151,VALID,-0.0679233,VALID,18.7144,VALID,325,VALID,0,
2001-07-22, 01:45:00,VALID,916.289,VALID,0,VALID,98.7922,VALID,-0.101885,VALID,18.7022,VALID,325,VALID,0,
2001-07-22, 01:46:00,VALID,916.269,VALID,0,VALID,98.7999,VALID,-0.0849042,VALID,18.7054,VALID,304,VALID,0,
2001-07-22, 01:47:00,VALID,916.277,VALID,0,VALID,98.8418,VALID,-0.0679233,VALID,18.7243,VALID,268,VALID,0,
2001-07-22, 01:48:00,VALID,916.261,VALID,0,VALID,98.8698,VALID,-0.0849042,VALID,18.7469,VALID,266,VALID,0,
2001-07-22, 01:49:00,VALID,916.248,VALID,0,VALID,98.8736,VALID,-0.0679233,VALID,18.7536,VALID,266,VALID,0,
2001-07-22, 01:50:00,VALID,916.246,VALID,0,VALID,98.8825,VALID,-0.0509425,VALID,18.7536,VALID,266,VALID,0,
2001-07-22, 01:51:00,VALID,916.23,VALID,0,VALID,98.8558,VALID,-0.0509425,VALID,18.7472,VALID,266,VALID,0,
2001-07-22, 01:52:00,VALID,916.22,VALID,0,VALID,98.8316,VALID,-0.0169808,VALID,18.731,VALID,266,VALID,0,
2001-07-22, 01:53:00,VALID,916.206,VALID,0,VALID,98.7821,VALID,-0.101885,VALID,18.7019,VALID,266,VALID,0,
2001-07-22, 01:54:00,VALID,916.203,VALID,0,VALID,98.6638,VALID,-0.0339617,VALID,18.6207,VALID,347,VALID,0,
2001-07-22, 01:55:00,VALID,916.193,VALID,0,VALID,98.6536,VALID,-0.0679233,VALID,18.5795,VALID,63,VALID,0,
2001-07-22, 01:56:00,VALID,916.177,VALID,0,VALID,98.7439,VALID,-0.0339617,VALID,18.5822,VALID,63,VALID,0,
2001-07-22, 01:57:00,VALID,916.167,VALID,0,VALID,98.7732,VALID,-0.0849042,VALID,18.6053,VALID,63,VALID,0,
2001-07-22, 01:58:00,VALID,916.158,VALID,0,VALID,98.7833,VALID,-0.0509425,VALID,18.5919,VALID,63,VALID,0,
2001-07-22, 01:59:00,VALID,916.162,VALID,0,VALID,98.7719,VALID,-0.0509425,VALID,18.5958,VALID,63,VALID,0,
2001-07-22, 02:00:00,VALID,916.158,VALID,0,VALID,98.7554,VALID,-0.0169808,VALID,18.5695,VALID,63,VALID,0,
2001-07-22, 02:01:00,VALID,916.151,VALID,0,VALID,98.7401,VALID,-0.0339617,VALID,18.5469,VALID,63,VALID,0,
2001-07-22, 02:02:00,VALID,916.138,VALID,0,VALID,98.6969,VALID,-0.0339617,VALID,18.5179,VALID,61,VALID,0,
2001-07-22, 02:03:00,VALID,916.138,VALID,0,VALID,98.5583,VALID,-0.0509425,VALID,18.4367,VALID,60,VALID,0,
2001-07-22, 02:04:00,VALID,916.118,VALID,0,VALID,98.5379,VALID,-0.0339617,VALID,18.3949,VALID,60,VALID,0,
2001-07-22, 02:05:00,VALID,916.125,VALID,0,VALID,98.6028,VALID,-0.0509425,VALID,18.382,VALID,60,VALID,0,
2001-07-22, 02:06:00,VALID,916.107,VALID,0,VALID,98.7274,VALID,-0.0339617,VALID,18.4044,VALID,61,VALID,0,
2001-07-22, 02:07:00,VALID,916.092,VALID,0,VALID,98.8304,VALID,-0.0679233,VALID,18.456,VALID,68,VALID,0,
2001-07-22, 02:08:00,VALID,916.073,VALID,0,VALID,98.8507,VALID,-0.0679233,VALID,18.489,VALID,68,VALID,0,
2001-07-22, 02:09:00,VALID,916.05,VALID,0,VALID,98.8673,VALID,-0.0339617,VALID,18.5077,VALID,69,VALID,0,
2001-07-22, 02:10:00,VALID,916.04,VALID,0,VALID,98.88,VALID,-0.0339617,VALID,18.534,VALID,69,VALID,0,
2001-07-22, 02:11:00,VALID,916.029,VALID,0,VALID,98.8596,VALID,-0.0509425,VALID,18.5306,VALID,70,VALID,0,
2001-07-22, 02:12:00,VALID,916.014,VALID,0,VALID,98.8482,VALID,-0.0509425,VALID,18.5276,VALID,70,VALID,0,
2001-07-22, 02:13:00,VALID,916.008,VALID,0,VALID,98.8431,VALID,-0.0509425,VALID,18.5179,VALID,70,VALID,0,
2001-07-22, 02:14:00,VALID,915.991,VALID,0,VALID,98.8418,VALID,-0.0169808,VALID,18.5112,VALID,70,VALID,0,
2001-07-22, 02:15:00,VALID,915.976,VALID,0,VALID,98.894,VALID,-0.0849042,VALID,18.5181,VALID,75,VALID,0,
2001-07-22, 02:16:00,VALID,915.959,VALID,0,VALID,98.969,VALID,-0.0509425,VALID,18.5571,VALID,86,VALID,0,
2001-07-22, 02:17:00,VALID,915.947,VALID,0,VALID,98.9779,VALID,-0.0509425,VALID,18.576,VALID,104,VALID,0,
2001-07-22, 02:18:00,VALID,915.937,VALID,0,VALID,98.969,VALID,-0.0509425,VALID,18.5822,VALID,130,VALID,0,
2001-07-22, 02:19:00,VALID,915.922,VALID,0,VALID,98.9792,VALID,-0.0339617,VALID,18.6053,VALID,131,VALID,0,
2001-07-22, 02:20:00,VALID,915.9,VALID,0,VALID,98.9741,VALID,-0.0849042,VALID,18.6182,VALID,131,VALID,0,
2001-07-22, 02:21:00,VALID,915.879,VALID,0,VALID,98.9588,VALID,-0.0679233,VALID,18.6217,VALID,131,VALID,0,
2001-07-22, 02:22:00,VALID,915.851,VALID,0,VALID,98.9334,VALID,-0.0509425,VALID,18.6147,VALID,130,VALID,0,
2001-07-22, 02:23:00,VALID,915.824,VALID,0,VALID,98.9041,VALID,-0.0849042,VALID,18.5954,VALID,129,VALID,0,
2001-07-22, 02:24:00,VALID,915.797,VALID,0,VALID,98.8749,VALID,-0.0679233,VALID,18.5792,VALID,124,VALID,0,
2001-07-22, 02:25:00,VALID,915.789,VALID,0,VALID,98.8469,VALID,-0.0339617,VALID,18.5601,VALID,124,VALID,0,
2001-07-22, 02:26:00,VALID,915.766,VALID,0,VALID,98.8584,VALID,-0.0509425,VALID,18.5407,VALID,123,VALID,0,
2001-07-22, 02:27:00,VALID,915.751,VALID,0,VALID,98.8571,VALID,-0.0509425,VALID,18.5243,VALID,120,VALID,0,
2001-07-22, 02:28:00,VALID,915.746,VALID,0,VALID,98.9105,VALID,0.0169808,VALID,18.5232,VALID,118,VALID,0,
2001-07-22, 02:29:00,VALID,915.726,VALID,0,VALID,98.9881,VALID,0,VALID,18.5582,VALID,119,VALID,0,
2001-07-22, 02:30:00,VALID,915.708,VALID,0,VALID,98.9703,VALID,0.0169808,VALID,18.5778,VALID,112,VALID,0,
2001-07-22, 02:31:00,VALID,915.701,VALID,0,VALID,98.9588,VALID,0.0509425,VALID,18.5847,VALID,94,VALID,0,
2001-07-22, 02:32:00,VALID,915.693,VALID,0,VALID,98.9436,VALID,0.0339617,VALID,18.5552,VALID,91,VALID,0,
2001-07-22, 02:33:00,VALID,915.672,VALID,0,VALID,98.8673,VALID,0.0169808,VALID,18.5232,VALID,91,VALID,0,
2001-07-22, 02:34:00,VALID,915.663,VALID,0,VALID,98.7808,VALID,0.0339617,VALID,18.4357,VALID,91,VALID,0,
2001-07-22, 02:35:00,VALID,915.635,VALID,0,VALID,98.8049,VALID,0.0509425,VALID,18.3866,VALID,91,VALID,0,
2001-07-22, 02:36:00,VALID,915.632,VALID,0,VALID,98.8418,VALID,0.0509425,VALID,18.397,VALID,141,VALID,0,
2001-07-22, 02:37:00,VALID,915.614,VALID,0,VALID,98.9308,VALID,0.0509425,VALID,18.4194,VALID,147,VALID,0,
2001-07-22, 02:38:00,VALID,915.6,VALID,0,VALID,98.9703,VALID,0.0169808,VALID,18.4387,VALID,144,VALID,0,
2001-07-22, 02:39:00,VALID,915.6,VALID,0,VALID,98.9397,VALID,0.0679233,VALID,18.4556,VALID,152,VALID,0,
2001-07-22, 02:40:00,VALID,915.585,VALID,0,VALID,98.9308,VALID,0.0509425,VALID,18.4583,VALID,140,VALID,0,
2001-07-22, 02:41:00,VALID,915.571,VALID,0,VALID,98.9461,VALID,0.0509425,VALID,18.4521,VALID,137,VALID,0,
2001-07-22, 02:42:00,VALID,915.55,VALID,0,VALID,98.9855,VALID,0.0509425,VALID,18.4417,VALID,137,VALID,0,
2001-07-22, 02:43:00,VALID,915.519,VALID,0,VALID,98.983,VALID,-0.0339617,VALID,18.4461,VALID,136,VALID,0,
2001-07-22, 02:44:00,VALID,915.485,VALID,0,VALID,99.0262,VALID,-0.0849042,VALID,18.4761,VALID,122,VALID,0.494655,
2001-07-22, 02:45:00,VALID,915.459,VALID,0,VALID,99.0364,VALID,-0.0509425,VALID,18.4881,VALID,130,VALID,0.701982,
2001-07-22, 02:46:00,VALID,915.425,VALID,0,VALID,99.0631,VALID,-0.0849042,VALID,18.5146,VALID,120,VALID,0.567308,
2001-07-22, 02:47:00,VALID,915.417,VALID,0,VALID,99.0567,VALID,-0.0339617,VALID,18.5308,VALID,107,VALID,0.564904,
2001-07-22, 02:48:00,VALID,915.384,VALID,0,VALID,99.0338,VALID,-0.0509425,VALID,18.5246,VALID,94,VALID,0.470861,
2001-07-22, 02:49:00,VALID,915.363,VALID,0,VALID,98.9881,VALID,-0.0509425,VALID,18.4948,VALID,104,VALID,0.201562,
2001-07-22, 02:50:00,VALID,915.341,VALID,0,VALID,98.9588,VALID,-0.0509425,VALID,18.4727,VALID,104,VALID,0.441406,
2001-07-22, 02:51:00,VALID,915.319,VALID,0,VALID,98.9792,VALID,-0.0169808,VALID,18.4401,VALID,111,VALID,0.529688,
2001-07-22, 02:52:00,VALID,915.302,VALID,0,VALID,99.0313,VALID,-0.0509425,VALID,18.4503,VALID,114,VALID,0.411659,
2001-07-22, 02:53:00,VALID,915.28,VALID,0,VALID,99.0287,VALID,-0.0169808,VALID,18.427,VALID,123,VALID,0.61616,
2001-07-22, 02:54:00,VALID,915.265,VALID,0,VALID,99.0453,VALID,-0.0339617,VALID,18.43,VALID,132,VALID,0.192434,
2001-07-22, 02:55:00,VALID,915.236,VALID,0,VALID,99.0618,VALID,-0.0169808,VALID,18.4364,VALID,131,VALID,0,
2001-07-22, 02:56:00,VALID,915.215,VALID,0,VALID,99.0847,VALID,-0.0679233,VALID,18.4434,VALID,103,VALID,0.413867,
2001-07-22, 02:57:00,VALID,915.205,VALID,0,VALID,99.0733,VALID,-0.0339617,VALID,18.4528,VALID,90,VALID,0.184696,
2001-07-22, 02:58:00,VALID,915.18,VALID,0,VALID,99.0605,VALID,0,VALID,18.4457,VALID,77,VALID,0.160156,
2001-07-22, 02:59:00,VALID,915.159,VALID,0,VALID,99.0542,VALID,0.0509425,VALID,18.4159,VALID,66,VALID,0.000200321,
2001-07-22, 03:00:00,VALID,915.146,VALID,0,VALID,99.0949,VALID,0.0849042,VALID,18.4256,VALID,88,VALID,0.802284,
2001-07-22, 03:01:00,VALID,915.138,VALID,0,VALID,99.1114,VALID,0.0679233,VALID,18.4355,VALID,84,VALID,0.15266,
2001-07-22, 03:02:00,VALID,915.118,VALID,0,VALID,99.0974,VALID,0.0509425,VALID,18.436,VALID,97,VALID,0.455128,
2001-07-22, 03:03:00,VALID,915.094,VALID,0,VALID,99.1267,VALID,0.0509425,VALID,18.4489,VALID,109,VALID,1.03364,
2001-07-22, 03:04:00,VALID,915.077,VALID,0,VALID,99.1152,VALID,0.0679233,VALID,18.4385,VALID,109,VALID,0.967448,
2001-07-22, 03:05:00,VALID,915.056,VALID,0,VALID,99.1241,VALID,0.0509425,VALID,18.4293,VALID,115,VALID,0.885352,
2001-07-22, 03:06:00,VALID,915.039,VALID,0,VALID,99.1457,VALID,0.0509425,VALID,18.4256,VALID,111,VALID,0.786529,
2001-07-22, 03:07:00,VALID,915.01,VALID,0,VALID,99.1394,VALID,0.0169808,VALID,18.4291,VALID,113,VALID,0.640224,
2001-07-22, 03:08:00,VALID,914.999,VALID,0,VALID,99.1623,VALID,0.0339617,VALID,18.4291,VALID,115,VALID,0.515419,
2001-07-22, 03:09:00,VALID,914.97,VALID,0,VALID,99.1763,VALID,0.0679233,VALID,18.4457,VALID,111,VALID,0.320503,
2001-07-22, 03:10:00,VALID,914.954,VALID,0,VALID,99.161,VALID,0.0339617,VALID,18.4231,VALID,107,VALID,0.549079,
2001-07-22, 03:11:00,VALID,914.933,VALID,0,VALID,99.1763,VALID,0.0339617,VALID,18.4258,VALID,103,VALID,0.774493,
2001-07-22, 03:12:00,VALID,914.916,VALID,0,VALID,99.1737,VALID,-0.0169808,VALID,18.4293,VALID,103,VALID,0.951172,
2001-07-22, 03:13:00,VALID,914.892,VALID,0,VALID,99.1839,VALID,0.0339617,VALID,18.4198,VALID,70,VALID,0.699119,
2001-07-22, 03:14:00,VALID,914.878,VALID,0,VALID,99.1813,VALID,0.0169808,VALID,18.4065,VALID,70,VALID,0.620477,
2001-07-22, 03:15:00,VALID,914.865,VALID,0,VALID,99.175,VALID,0.0169808,VALID,18.4002,VALID,72,VALID,0.471495,
2001-07-22, 03:16:00,VALID,914.847,VALID,0,VALID,99.1661,VALID,0.0339617,VALID,18.3677,VALID,73,VALID,0.395433,
2001-07-22, 03:17:00,VALID,914.852,VALID,0,VALID,99.1661,VALID,0.0509425,VALID,18.3583,VALID,91,VALID,0.467142,
2001-07-22, 03:18:00,VALID,914.834,VALID,0,VALID,99.1635,VALID,0,VALID,18.3292,VALID,87,VALID,0,
2001-07-22, 03:19:00,VALID,914.814,VALID,0,VALID,99.1686,VALID,0,VALID,18.3163,VALID,100,VALID,0.299342,
2001-07-22, 03:20:00,VALID,914.803,VALID,0,VALID,99.2055,VALID,0.0509425,VALID,18.3061,VALID,127,VALID,0.515408,
2001-07-22, 03:21:00,VALID,914.8,VALID,0,VALID,99.2271,VALID,0.0679233,VALID,18.3193,VALID,120,VALID,0.153083,
2001-07-22, 03:22:00,VALID,914.79,VALID,0,VALID,99.2322,VALID,0.0339617,VALID,18.3227,VALID,119,VALID,0.19375,
2001-07-22, 03:23:00,VALID,914.781,VALID,0,VALID,99.2882,VALID,0.0339617,VALID,18.3516,VALID,113,VALID,0.701686,
2001-07-22, 03:24:00,VALID,914.77,VALID,0,VALID,99.2907,VALID,0.0509425,VALID,18.3806,VALID,117,VALID,0.729307,
2001-07-22, 03:25:00,VALID,914.751,VALID,0,VALID,99.2907,VALID,0.0849042,VALID,18.4,VALID,119,VALID,0.815505,
2001-07-22, 03:26:00,VALID,914.742,VALID,0,VALID,99.2907,VALID,0.0509425,VALID,18.4168,VALID,117,VALID,0.752804,
2001-07-22, 03:27:00,VALID,914.726,VALID,0,VALID,99.3072,VALID,0.0169808,VALID,18.4362,VALID,115,VALID,0.688528,
2001-07-22, 03:28:00,VALID,914.697,VALID,0,VALID,99.3021,VALID,0,VALID,18.4427,VALID,134,VALID,0.383235,
2001-07-22, 03:29:00,VALID,914.675,VALID,0,VALID,99.3123,VALID,0,VALID,18.4586,VALID,138,VALID,0.00641026,
2001-07-22, 03:30:00,VALID,914.644,VALID,0,VALID,99.3174,VALID,-0.0169808,VALID,18.4913,VALID,145,VALID,0,
2001-07-22, 03:31:00,VALID,914.627,VALID,0,VALID,99.3098,VALID,0,VALID,18.5107,VALID,139,VALID,0.712416,
2001-07-22, 03:32:00,VALID,914.619,VALID,0,VALID,99.2958,VALID,0,VALID,18.4943,VALID,136,VALID,0.886433,
2001-07-22, 03:33:00,VALID,914.601,VALID,0,VALID,99.292,VALID,0,VALID,18.4909,VALID,136,VALID,0.810764,
2001-07-22, 03:34:00,VALID,914.601,VALID,0,VALID,99.2856,VALID,0.0169808,VALID,18.4812,VALID,140,VALID,1.03906,
2001-07-22, 03:35:00,VALID,914.594,VALID,0,VALID,99.2716,VALID,0.0169808,VALID,18.4814,VALID,138,VALID,0.886018,
2001-07-22, 03:36:00,VALID,914.584,VALID,0,VALID,99.2831,VALID,0.0169808,VALID,18.4717,VALID,130,VALID,0.942187,
2001-07-22, 03:37:00,VALID,914.583,VALID,0,VALID,99.2818,VALID,0,VALID,18.4685,VALID,123,VALID,0.521998,
2001-07-22, 03:38:00,VALID,914.56,VALID,0,VALID,99.2907,VALID,0,VALID,18.465,VALID,113,VALID,0.490954,
2001-07-22, 03:39:00,VALID,914.574,VALID,0,VALID,99.3034,VALID,0,VALID,18.4782,VALID,108,VALID,0.903294,
2001-07-22, 03:40:00,VALID,914.566,VALID,0,VALID,99.306,VALID,0,VALID,18.4849,VALID,108,VALID,0.822852,